Location: Oberwangen
(47.4286°N, 8.9679°E)
Time: 04:45:01
(UTC+00:00)

Cosmos 2360 Rocket - Pass Details

Date: 20 June 2021
Orbit: 835 x 843 km, 71.0° (Epoch: 28 July)

Event Time Altitude Azimuth Distance (km) Brightness Sun altitude
Rises 20:38:51 0° 214° (SW) 3,382 5.2 -9.8°
Reaches altitude 10° 20:41:18 10° 217° (SW) 2,450 4.5 -10.0°
Maximum altitude 20:46:54 67° 300° (WNW) 909 2.6 -10.6°
Drops below altitude 10° 20:52:32 10° 23° (NNE) 2,461 5.1 -11.2°
Sets 20:55:00 0° 26° (NNE) 3,398 5.8 -11.4°
